(244651) = 2003 GF3

Discovered at Socorro on 2003-04-01 by LINEAR.

Orbit

Orbit type: Main Belt

Note: WebGL enabled browser required.

epoch2024-03-31.0
epoch JD2460400.5
perihelion date2025-05-24.90730
perihelion JD2460820.40730
argument of perihelion (°)52.03839
ascending node (°)181.75410
inclination (°)6.44821
eccentricity0.0970401
perihelion distance (AU)2.1288089
Tisserand w.r.t. Jupiter3.5
ΔV w.r.t. Earth (km/sec)9.3
semimajor axis (AU)2.3575897
mean anomaly (°)245.67138
mean daily motion (°/day)0.27227110
aphelion distance (AU)2.586
period (years)3.62
P-vector [x]-0.59086423
P-vector [y]-0.77094723
P-vector [z]-0.23773901
Q-vector [x]0.80676369
Q-vector [y]-0.56587805
Q-vector [z]-0.17004229
absolute magnitude16.8
phase slope0.15
uncertainty0
referenceMPEC 2024-C145
observations used509
oppositions15
arc length (days)7644
first opposition used2003
last opposition used2024
residual rms (arc-secs)0.77
perturbers coarse indicatorM-v
perturbers precise indicator003Ek
first observation date used2003-03-10.0
last observation date used2024-02-12.0
computer nameMPCLINUX
JD of orbit computation2456937.388408
perihelion JD uncertainty (days)1.1363E-04
argument of perihelion uncertainty (°)5.0242E-05
ascending node uncertainty (°)3.7908E-05
inclination uncertainty (°)6.6338E-06
eccentricity uncertainty 4.7022E-08
perihelion distance uncertainty (AU)1.1047E-07
Minimum Orbit Intersection Distances (in AU)
for orbit epoch: 2460200.5, reference: E2024-CE5
Mercury1.67456
Venus1.40881
Earth1.12658
Mars0.54285
Jupiter2.39757
Saturn6.50897
Uranus16.1605
Neptune27.268

Observations

515 total observations over interval: 2003 03 10.27843 – 2024 02 12.333705
These data are available for download (format description).

Date (UT) J2000 RA J2000 Dec Magn Location Ref
2003 03 10.27843 12 13 54.37 -02 29 12.0 19.2 R 699 – Lowell Observatory-LONEOS MPS 78433
2003 03 10.29667 12 13 53.52 -02 29 01.6   699 – Lowell Observatory-LONEOS MPS 78433
2003 03 10.31497 12 13 52.64 -02 28 53.9   699 – Lowell Observatory-LONEOS MPS 78433
2003 03 10.33317 12 13 51.90 -02 28 43.7   699 – Lowell Observatory-LONEOS MPS 78433
2003 03 25.32078 12 01 45.60 -00 09 09.7 19.0 R 699 – Lowell Observatory-LONEOS MPS 76466
2003 03 25.34102 12 01 44.67 -00 08 59.1   699 – Lowell Observatory-LONEOS MPS 76466
2003 03 25.35600 12 01 43.85 -00 08 49.6   699 – Lowell Observatory-LONEOS MPS 76466
2003 03 25.37094 12 01 43.00 -00 08 40.4   699 – Lowell Observatory-LONEOS MPS 76466
2003 03 29.23663 11 58 30.62 +00 28 21.9 20.3 V 291 – LPL/Spacewatch II MPS 76466
2003 03 29.26162 11 58 29.28 +00 28 36.4 19.7 V 291 – LPL/Spacewatch II MPS 76466
2003 03 29.30381 11 58 27.14 +00 29 00.7 19.9 V 291 – LPL/Spacewatch II MPS 76466
2003 04 01.29252 11 56 02.81 +00 57 02.7 19.1   704 – Lincoln Laboratory ETS, New Mexico MPS 76466
2003 04 01.30408 11 56 02.27 +00 57 09.5 19.5   704 – Lincoln Laboratory ETS, New Mexico MPS 76466
2003 04 01.31572 11 56 01.66 +00 57 16.4 18.8   704 – Lincoln Laboratory ETS, New Mexico MPS 76466
2003 04 01.33883 11 56 00.50 +00 57 30.1 19.7   704 – Lincoln Laboratory ETS, New Mexico MPS 76466
2003 04 03.20803 11 54 33.71 +01 14 36.6 19.2 R 699 – Lowell Observatory-LONEOS MPS 76466
2003 04 03.22511 11 54 32.77 +01 14 45.8   699 – Lowell Observatory-LONEOS MPS 76466
2003 04 03.24230 11 54 31.91 +01 14 54.7   699 – Lowell Observatory-LONEOS MPS 76466
2003 04 03.25935 11 54 31.17 +01 15 04.9   699 – Lowell Observatory-LONEOS MPS 76466
2003 04 07.17429 11 51 39.09 +01 49 33.9 20.1 V 291 – LPL/Spacewatch II MPS 78433
2003 04 07.19718 11 51 38.07 +01 49 45.8 20.5 V 291 – LPL/Spacewatch II MPS 78433
2003 04 07.22034 11 51 37.03 +01 49 57.6 20.3 V 291 – LPL/Spacewatch II MPS 78433
2003 05 01.14494 11 41 52.26 +04 16 15.6 20.4 V 691 – Steward Observatory, Kitt Peak-Spacewatch MPS 78433
2003 05 01.17209 11 41 52.06 +04 16 21.2 20.3 V 691 – Steward Observatory, Kitt Peak-Spacewatch MPS 78433
2003 05 01.19885 11 41 51.89 +04 16 26.3 20.4 V 691 – Steward Observatory, Kitt Peak-Spacewatch MPS 78433
2004 09 08.22799 23 03 40.83 -02 42 16.4 19.9   704 – Lincoln Laboratory ETS, New Mexico MPS 112854
2004 09 08.23952 23 03 40.29 -02 42 23.1 20.0   704 – Lincoln Laboratory ETS, New Mexico MPS 112854
2004 09 08.25097 23 03 39.73 -02 42 28.9 19.8   704 – Lincoln Laboratory ETS, New Mexico MPS 112854
2004 09 08.27387 23 03 38.51 -02 42 41.1 19.9   704 – Lincoln Laboratory ETS, New Mexico MPS 112854
2004 09 09.19263 23 02 51.00 -02 50 34.7 19.9   704 – Lincoln Laboratory ETS, New Mexico MPS 112854
2004 09 09.20379 23 02 50.40 -02 50 39.9 19.8   704 – Lincoln Laboratory ETS, New Mexico MPS 112854
2004 09 09.21557 23 02 49.77 -02 50 46.0 20.1   704 – Lincoln Laboratory ETS, New Mexico MPS 112854
2004 09 09.22693 23 02 49.12 -02 50 51.6 19.9   704 – Lincoln Laboratory ETS, New Mexico MPS 112854
2004 09 12.29716 23 00 11.37 -03 17 13.3 19.9 V 691 – Steward Observatory, Kitt Peak-Spacewatch MPS 112854
2004 09 12.32506 23 00 09.88 -03 17 27.7 20.0 V 691 – Steward Observatory, Kitt Peak-Spacewatch MPS 112854
2004 09 12.35341 23 00 08.39 -03 17 42.1 19.9 V 691 – Steward Observatory, Kitt Peak-Spacewatch MPS 112854
2004 09 17.21691 22 56 07.46 -03 58 57.5 19.5   704 – Lincoln Laboratory ETS, New Mexico MPS 114353
2004 09 17.22865 22 56 06.86 -03 59 02.2 19.9   704 – Lincoln Laboratory ETS, New Mexico MPS 114353
2004 09 17.24042 22 56 06.21 -03 59 09.5 20.2   704 – Lincoln Laboratory ETS, New Mexico MPS 114353
2004 09 17.26389 22 56 05.05 -03 59 21.7 20.4   704 – Lincoln Laboratory ETS, New Mexico MPS 114353
2004 10 07.13030 22 43 42.34 -06 23 03.9 20.5 V 691 – Steward Observatory, Kitt Peak-Spacewatch MPS 115733
2004 10 07.14852 22 43 41.88 -06 23 10.6 20.7 V 691 – Steward Observatory, Kitt Peak-Spacewatch MPS 115733
2004 10 07.16632 22 43 41.39 -06 23 16.3 20.4 V 691 – Steward Observatory, Kitt Peak-Spacewatch MPS 115733
2007 05 25.32177 16 41 14.06 -11 02 17.7 18.9 V 703 – Catalina Sky Survey MPS 210429
2007 05 25.33097 16 41 13.52 -11 02 16.0 18.2 V 703 – Catalina Sky Survey MPS 210429
2007 05 25.34017 16 41 13.05 -11 02 11.8 18.9 V 703 – Catalina Sky Survey MPS 210429
2007 05 25.34939 16 41 12.48 -11 02 11.0 18.6 V 703 – Catalina Sky Survey MPS 210429
2008 09 20.36476 02 21 07.32 +10 28 58.8   691 – Steward Observatory, Kitt Peak-Spacewatch MPS 256615
2008 09 20.38305 02 21 06.81 +10 28 53.0   691 – Steward Observatory, Kitt Peak-Spacewatch MPS 256615
2008 09 20.40066 02 21 06.35 +10 28 47.3   691 – Steward Observatory, Kitt Peak-Spacewatch MPS 256615
2008 09 24.41053 02 19 13.99 +10 05 54.0 20.3 V 691 – Steward Observatory, Kitt Peak-Spacewatch MPS 256615
2008 09 24.42815 02 19 13.43 +10 05 47.8 20.4 V 691 – Steward Observatory, Kitt Peak-Spacewatch MPS 256615
2008 09 24.44578 02 19 12.86 +10 05 41.8 20.3 V 691 – Steward Observatory, Kitt Peak-Spacewatch MPS 256615
2008 10 08.34100 02 09 49.04 +08 32 05.8 20.1 V 691 – Steward Observatory, Kitt Peak-Spacewatch MPS 259179
2008 10 08.36158 02 09 48.01 +08 31 57.0 20.2 V 691 – Steward Observatory, Kitt Peak-Spacewatch MPS 259179
2008 10 08.37920 02 09 47.13 +08 31 49.1 20.0 V 691 – Steward Observatory, Kitt Peak-Spacewatch MPS 259179
2010 02 12.27938 09 40 06.29 +06 42 36.7 19.6   704 – Lincoln Laboratory ETS, New Mexico MPS 313059
2010 02 12.30422 09 40 04.80 +06 42 47.5 19.5   704 – Lincoln Laboratory ETS, New Mexico MPS 313059
2010 02 12.31653 09 40 04.10 +06 42 53.4 19.6   704 – Lincoln Laboratory ETS, New Mexico MPS 313059
2010 02 12.32885 09 40 03.36 +06 42 57.8 19.6   704 – Lincoln Laboratory ETS, New Mexico MPS 313059
2010 02 13.375672 09 39 03.911 +06 50 40.91 19.98 g F51 – Pan-STARRS 1, Haleakala MPS 337296
2010 02 13.385021 09 39 03.357 +06 50 45.12 19.97 g F51 – Pan-STARRS 1, Haleakala MPS 337296
2010 02 14.28007 09 38 12.28 +06 57 23.8 19.4   704 – Lincoln Laboratory ETS, New Mexico MPS 313059
2010 02 14.29254 09 38 11.51 +06 57 29.1 19.5   704 – Lincoln Laboratory ETS, New Mexico MPS 313059
2010 02 14.30509 09 38 10.76 +06 57 35.2 19.6   704 – Lincoln Laboratory ETS, New Mexico MPS 313059
2010 02 14.31768 09 38 10.04 +06 57 40.4 19.2   704 – Lincoln Laboratory ETS, New Mexico MPS 313059
2010 02 17.27136 09 35 22.20 +07 20 03.3 19.8   704 – Lincoln Laboratory ETS, New Mexico MPS 313059
2010 02 17.28363 09 35 21.49 +07 20 10.7 19.9   704 – Lincoln Laboratory ETS, New Mexico MPS 313059
2010 02 17.29627 09 35 20.83 +07 20 15.5 19.9   704 – Lincoln Laboratory ETS, New Mexico MPS 313059
2010 02 17.32070 09 35 19.43 +07 20 27.3 19.8   704 – Lincoln Laboratory ETS, New Mexico MPS 313059
2010 02 18.15595 09 34 32.59 +07 26 53.1   691 – Steward Observatory, Kitt Peak-Spacewatch MPS 313059
2010 02 18.17102 09 34 31.72 +07 27 00.1   691 – Steward Observatory, Kitt Peak-Spacewatch MPS 313059
2010 02 18.18608 09 34 30.85 +07 27 07.3   691 – Steward Observatory, Kitt Peak-Spacewatch MPS 313059
2010 03 04.497744 09 22 19.237 +09 18 14.33 19.59 i F51 – Pan-STARRS 1, Haleakala MPS 337296
2010 03 04.506234 09 22 18.857 +09 18 18.23 19.76 i F51 – Pan-STARRS 1, Haleakala MPS 337296
2010 03 12.339234 09 17 23.324 +10 14 35.58 19.84 r F51 – Pan-STARRS 1, Haleakala MPS 337296
2010 03 12.347716 09 17 23.044 +10 14 38.92 19.88 r F51 – Pan-STARRS 1, Haleakala MPS 337296
2011 06 25.30456 21 19 36.51 -06 18 32.8 20.0 V G96 – Mt. Lemmon Survey MPS 386257
2011 06 25.31325 21 19 36.40 -06 18 32.4 19.9 V G96 – Mt. Lemmon Survey MPS 386257
2011 06 25.32198 21 19 36.30 -06 18 32.3 20.1 V G96 – Mt. Lemmon Survey MPS 386257
2011 06 25.33081 21 19 36.15 -06 18 31.3 19.7 V G96 – Mt. Lemmon Survey MPS 386257
2011 07 01.31399 21 18 05.61 -06 17 17.4 20.3 V 691 – Steward Observatory, Kitt Peak-Spacewatch MPS 386257
2011 07 01.33174 21 18 05.25 -06 17 17.8 20.1 V 691 – Steward Observatory, Kitt Peak-Spacewatch MPS 386257
2011 07 01.34944 21 18 04.84 -06 17 18.7 20.1 V 691 – Steward Observatory, Kitt Peak-Spacewatch MPS 386257
2011 07 01.35426 21 18 04.73 -06 17 18.5 20.0 V 691 – Steward Observatory, Kitt Peak-Spacewatch MPS 386257
